Location: La Pernelle
(49.6188°N, 1.2999°W)
Time: 00:49:26
(UTC+00:00)

DNEPR-1 R/B - Visible Passes

Search period start: 24 October 2021 00:00
Search period end: 03 November 2021 00:00
Orbit: 588 x 1333 km, 64.6° (Epoch: 23 October)

Date Brightness Start Highest point End Pass type
(mag) Time Alt. Az. Time Alt. Az. Time Alt. Az.
25 Oct 7.0 05:25:09 10° SE 05:26:51 12° ESE 05:28:30 10° E visible
26 Oct 6.3 05:43:55 10° S 05:47:36 23° ESE 05:51:01 10° ENE visible
27 Oct 5.0 06:04:02 10° SSW 06:08:27 43° ESE 06:12:31 10° NE visible
28 Oct 6.8 04:41:12 10° SE 04:42:44 12° ESE 04:44:14 10° E visible
29 Oct 6.1 04:59:51 10° SSE 05:03:28 22° ESE 05:06:51 10° ENE visible
30 Oct 4.8 05:19:56 10° SSW 05:24:20 42° ESE 05:28:22 10° NE visible
31 Oct 6.7 03:57:16 10° SE 03:58:37 11° ESE 03:59:57 10° E visible
31 Oct 3.6 05:40:41 10° SW 05:45:18 82° SE 05:49:33 10° NE visible
01 Nov 5.9 04:15:47 10° SSE 04:19:21 22° ESE 04:22:42 10° ENE visible
01 Nov 3.6 06:01:55 10° SW 06:06:21 55° NW 06:10:32 10° NE visible
02 Nov 4.7 04:36:45 15° S 04:40:12 41° ESE 04:44:14 10° NE visible
